| time (UTC) | temp F | wind direction | speed MPH | gust MPH | rain 1hr in | rain 24hr in | rain mn in | humidity % | barometer mb |
| 20260508071004 | 74 | 177 | 0.0 | 1.0 | 0.00 | 0.00 | 0.00 | 93 | 1011.5 |
| 20260508070005 | 74 | 177 | 0.0 | 2.0 | 0.00 | 0.00 | 0.00 | 93 | 1011.6 |
| 20260508065005 | 75 | 174 | 1.0 | 2.0 | 0.00 | 0.00 | 0.00 | 92 | 1011.8 |
| 20260508064005 | 75 | 207 | 1.0 | 2.0 | 0.00 | 0.00 | 0.00 | 92 | 1011.9 |
| 20260508063004 | 75 | 195 | 1.0 | 2.0 | 0.00 | 0.00 | 0.00 | 91 | 1011.9 |
| 20260508062005 | 75 | 211 | 0.0 | 2.0 | 0.00 | 0.00 | 0.00 | 91 | 1011.9 |
| 20260508061004 | 75 | 188 | 0.0 | 1.0 | 0.00 | 0.00 | 0.00 | 91 | 1012.0 |
| 20260508060219 | 75 | 196 | 0.0 | 2.0 | 0.00 | 0.00 | 0.00 | 91 | 1011.8 |
| 20260508055005 | 75 | 183 | 0.0 | 1.0 | 0.00 | 0.00 | 0.00 | 91 | 1012.0 |
| 20260508054004 | 75 | 126 | 0.0 | 1.0 | 0.00 | 0.00 | 0.00 | 90 | 1012.2 |
| 20260508053004 | 75 | 185 | 1.0 | 2.0 | 0.00 | 0.00 | 0.00 | 89 | 1012.0 |
| 20260508052005 | 76 | 177 | 1.0 | 3.0 | 0.00 | 0.00 | 0.00 | 89 | 1012.1 |
| 20260508051004 | 76 | 155 | 0.0 | 1.0 | 0.00 | 0.00 | 0.00 | 88 | 1012.2 |
| 20260508050005 | 76 | 192 | 1.0 | 2.0 | 0.00 | 0.00 | 0.00 | 87 | 1012.2 |
| 20260508045004 | 76 | 183 | 1.0 | 2.0 | 0.00 | 0.00 | 0.00 | 87 | 1012.2 |
| 20260508044216 | 76 | 216 | 1.0 | 2.0 | 0.00 | 0.00 | 0.00 | 86 | 1012.1 |
| 20260508043005 | 77 | 207 | 1.0 | 2.0 | 0.00 | 0.00 | 0.00 | 86 | 1011.8 |
| 20260508042004 | 77 | 268 | 1.0 | 4.0 | 0.00 | 0.00 | 0.00 | 85 | 1012.1 |
| 20260508041004 | 77 | 256 | 2.0 | 6.0 | 0.00 | 0.00 | 0.00 | 84 | 1012.1 |
| 20260508040021 | 78 | 226 | 1.0 | 3.0 | 0.00 | 0.00 | 0.00 | 82 | 1012.3 |
| 20260508035216 | 78 | 203 | 1.0 | 2.0 | 0.00 | 0.00 | 0.00 | 81 | 1012.0 |
| 20260508034004 | 78 | 220 | 1.0 | 2.0 | 0.00 | 0.00 | 0.00 | 80 | 1012.1 |
| 20260508033005 | 79 | 220 | 1.0 | 2.0 | 0.00 | 0.00 | 0.00 | 79 | 1012.0 |
| 20260508032004 | 79 | 200 | 1.0 | 3.0 | 0.00 | 0.00 | 0.00 | 77 | 1011.9 |
| 20260508031004 | 79 | 261 | 2.0 | 6.0 | 0.00 | 0.00 | 0.00 | 76 | 1011.9 |
| 20260508030005 | 80 | 253 | 1.0 | 3.0 | 0.00 | 0.00 | 0.00 | 75 | 1012.1 |
| 20260508025217 | 80 | 208 | 1.0 | 6.0 | 0.00 | 0.00 | 0.00 | 74 | 1011.9 |
| 20260508024217 | 80 | 241 | 1.0 | 3.0 | 0.00 | 0.00 | 0.00 | 72 | 1011.8 |
| 20260508023004 | 80 | 218 | 1.0 | 2.0 | 0.00 | 0.00 | 0.00 | 71 | 1011.8 |
| 20260508022004 | 81 | 219 | 1.0 | 3.0 | 0.00 | 0.00 | 0.00 | 70 | 1011.6 |
| 20260508021005 | 81 | 250 | 1.0 | 6.0 | 0.00 | 0.00 | 0.00 | 68 | 1011.5 |
| 20260508020005 | 82 | 226 | 2.0 | 6.0 | 0.00 | 0.00 | 0.00 | 67 | 1011.3 |
| 20260508015217 | 82 | 241 | 2.0 | 4.0 | 0.00 | 0.00 | 0.00 | 66 | 1011.3 |
| 20260508014218 | 82 | 256 | 2.0 | 4.0 | 0.00 | 0.00 | 0.00 | 65 | 1011.3 |
| 20260508013214 | 82 | 241 | 1.0 | 3.0 | 0.00 | 0.00 | 0.00 | 64 | 1011.4 |
| 20260508012004 | 83 | 237 | 1.0 | 4.0 | 0.00 | 0.00 | 0.00 | 62 | 1011.0 |
| 20260508011005 | 83 | 232 | 1.0 | 3.0 | 0.00 | 0.00 | 0.00 | 61 | 1010.6 |
| 20260508010217 | 84 | 240 | 1.0 | 3.0 | 0.00 | 0.00 | 0.00 | 60 | 1010.6 |
| 20260508005005 | 84 | 240 | 1.0 | 4.0 | 0.00 | 0.00 | 0.00 | 59 | 1010.6 |
| 20260508004005 | 85 | 234 | 2.0 | 4.0 | 0.00 | 0.00 | 0.00 | 57 | 1010.7 |
| 20260508003005 | 85 | 260 | 1.0 | 3.0 | 0.00 | 0.00 | 0.00 | 56 | 1010.6 |
| 20260508002005 | 86 | 275 | 2.0 | 4.0 | 0.00 | 0.00 | 0.00 | 54 | 1010.7 |
| 20260508001004 | 86 | 253 | 2.0 | 7.0 | 0.00 | 0.00 | 0.00 | 53 | 1010.4 |
| 20260508000005 | 87 | 246 | 2.0 | 4.0 | 0.00 | 0.00 | 0.00 | 51 | 1010.5 |
| 20260507235005 | 87 | 229 | 2.0 | 4.0 | 0.00 | 0.00 | 0.00 | 50 | 1010.4 |
| 20260507234004 | 88 | 225 | 1.0 | 4.0 | 0.00 | 0.00 | 0.00 | 49 | 1010.2 |
| 20260507233005 | 89 | 234 | 2.0 | 7.0 | 0.00 | 0.00 | 0.00 | 47 | 1010.5 |
| 20260507232005 | 90 | 245 | 2.0 | 4.0 | 0.00 | 0.00 | 0.00 | 45 | 1010.2 |
| 20260507231005 | 90 | 250 | 2.0 | 4.0 | 0.00 | 0.00 | 0.00 | 43 | 1009.8 |
| 20260507230218 | 91 | 250 | 2.0 | 7.0 | 0.00 | 0.00 | 0.00 | 41 | 1010.1 |
| 20260507225214 | 91 | 226 | 2.0 | 6.0 | 0.00 | 0.00 | 0.00 | 39 | 1009.9 |
| 20260507224004 | 92 | 213 | 2.0 | 7.0 | 0.00 | 0.00 | 0.00 | 37 | 1009.6 |
| 20260507223216 | 92 | 252 | 2.0 | 6.0 | 0.00 | 0.00 | 0.00 | 37 | 1010.0 |
| 20260507222005 | 93 | 281 | 2.0 | 7.0 | 0.00 | 0.00 | 0.00 | 35 | 1010.1 |
| 20260507221004 | 93 | 248 | 3.0 | 8.0 | 0.00 | 0.00 | 0.00 | 34 | 1010.0 |
| 20260507220004 | 94 | 235 | 3.0 | 8.0 | 0.00 | 0.00 | 0.00 | 34 | 1009.9 |
| 20260507215215 | 94 | 232 | 3.0 | 7.0 | 0.00 | 0.00 | 0.00 | 34 | 1010.0 |
| 20260507214216 | 94 | 277 | 2.0 | 4.0 | 0.00 | 0.00 | 0.00 | 34 | 1010.0 |
| 20260507213216 | 94 | 241 | 2.0 | 7.0 | 0.00 | 0.00 | 0.00 | 34 | 1010.1 |
| 20260507212005 | 94 | 276 | 2.0 | 8.0 | 0.00 | 0.00 | 0.00 | 33 | 1010.1 |
| 20260507211004 | 95 | 228 | 2.0 | 8.0 | 0.00 | 0.00 | 0.00 | 33 | 1010.2 |
| 20260507210005 | 94 | 252 | 3.0 | 8.0 | 0.00 | 0.00 | 0.00 | 36 | 1010.4 |
| 20260507205004 | 95 | 270 | 2.0 | 7.0 | 0.00 | 0.00 | 0.00 | 34 | 1010.6 |
| 20260507204004 | 94 | 308 | 3.0 | 14.0 | 0.00 | 0.00 | 0.00 | 35 | 1010.7 |
| 20260507203005 | 96 | 283 | 3.0 | 9.0 | 0.00 | 0.00 | 0.00 | 35 | 1010.6 |
| 20260507202005 | 97 | 297 | 2.0 | 6.0 | 0.00 | 0.00 | 0.00 | 36 | 1010.6 |
| 20260507201004 | 97 | 292 | 3.0 | 8.0 | 0.00 | 0.00 | 0.00 | 37 | 1010.8 |
| 20260507200005 | 96 | 306 | 4.0 | 13.0 | 0.00 | 0.00 | 0.00 | 38 | 1010.9 |
| 20260507195004 | 96 | 337 | 4.0 | 13.0 | 0.00 | 0.00 | 0.00 | 38 | 1010.8 |
| 20260507194004 | 97 | 286 | 3.0 | 9.0 | 0.00 | 0.00 | 0.00 | 38 | 1011.2 |
| 20260507193005 | 99 | 279 | 3.0 | 7.0 | 0.00 | 0.00 | 0.00 | 35 | 1011.4 |
| 20260507192004 | 97 | 298 | 4.0 | 15.0 | 0.00 | 0.00 | 0.00 | 34 | 1011.1 |
| 20260507191004 | 98 | 252 | 3.0 | 10.0 | 0.00 | 0.00 | 0.00 | 35 | 1011.0 |
| 20260507190006 | 96 | 311 | 3.0 | 9.0 | 0.00 | 0.00 | 0.00 | 35 | 1011.4 |
| 20260507185005 | 97 | 273 | 2.0 | 6.0 | 0.00 | 0.00 | 0.00 | 35 | 1011.5 |
| 20260507184005 | 99 | 236 | 2.0 | 8.0 | 0.00 | 0.00 | 0.00 | 33 | 1011.6 |
| 20260507183005 | 99 | 296 | 3.0 | 11.0 | 0.00 | 0.00 | 0.00 | 33 | 1011.7 |
| 20260507182004 | 97 | 231 | 3.0 | 8.0 | 0.00 | 0.00 | 0.00 | 34 | 1011.9 |
| 20260507181004 | 98 | 282 | 3.0 | 8.0 | 0.00 | 0.00 | 0.00 | 34 | 1012.1 |
| 20260507180005 | 98 | 252 | 2.0 | 5.0 | 0.00 | 0.00 | 0.00 | 33 | 1012.4 |
| 20260507175217 | 98 | 228 | 3.0 | 7.0 | 0.00 | 0.00 | 0.00 | 32 | 1012.4 |
| 20260507174005 | 98 | 265 | 3.0 | 8.0 | 0.00 | 0.00 | 0.00 | 32 | 1012.6 |
| 20260507173005 | 97 | 343 | 2.0 | 8.0 | 0.00 | 0.00 | 0.00 | 33 | 1012.5 |
| 20260507172004 | 96 | 240 | 2.0 | 7.0 | 0.00 | 0.00 | 0.00 | 35 | 1012.4 |
| 20260507171005 | 96 | 322 | 4.0 | 10.0 | 0.00 | 0.00 | 0.00 | 38 | 1012.6 |
| 20260507170217 | 96 | 281 | 3.0 | 7.0 | 0.00 | 0.00 | 0.00 | 38 | 1012.8 |
| 20260507165004 | 96 | 290 | 3.0 | 8.0 | 0.00 | 0.00 | 0.00 | 39 | 1012.7 |
| 20260507164005 | 95 | 296 | 3.0 | 8.0 | 0.00 | 0.00 | 0.00 | 41 | 1012.6 |
| 20260507163215 | 95 | 298 | 3.0 | 8.0 | 0.00 | 0.00 | 0.00 | 41 | 1012.8 |
| 20260507162004 | 94 | 315 | 3.0 | 7.0 | 0.00 | 0.00 | 0.00 | 41 | 1012.9 |
| 20260507161005 | 93 | 214 | 3.0 | 10.0 | 0.00 | 0.00 | 0.00 | 42 | 1012.9 |
| 20260507160005 | 94 | 211 | 2.0 | 6.0 | 0.00 | 0.00 | 0.00 | 42 | 1012.8 |
| 20260507155004 | 94 | 250 | 3.0 | 10.0 | 0.00 | 0.00 | 0.00 | 42 | 1012.9 |
| 20260507154005 | 92 | 206 | 2.0 | 8.0 | 0.00 | 0.00 | 0.00 | 43 | 1012.8 |
| 20260507153005 | 92 | 182 | 2.0 | 7.0 | 0.00 | 0.00 | 0.00 | 43 | 1013.0 |
| 20260507152004 | 91 | 211 | 2.0 | 7.0 | 0.00 | 0.00 | 0.00 | 45 | 1012.6 |
| 20260507151005 | 91 | 175 | 2.0 | 4.0 | 0.00 | 0.00 | 0.00 | 46 | 1012.5 |
| 20260507150005 | 90 | 193 | 2.0 | 7.0 | 0.00 | 0.00 | 0.00 | 49 | 1012.8 |
| 20260507145004 | 89 | 188 | 2.0 | 7.0 | 0.00 | 0.00 | 0.00 | 52 | 1012.6 |
| 20260507144005 | 87 | 174 | 2.0 | 6.0 | 0.00 | 0.00 | 0.00 | 56 | 1012.9 |
| 20260507143005 | 88 | 139 | 1.0 | 3.0 | 0.00 | 0.00 | 0.00 | 56 | 1013.0 |
| 20260507142004 | 85 | 217 | 2.0 | 6.0 | 0.00 | 0.00 | 0.00 | 59 | 1012.9 |
| 20260507141006 | 85 | 212 | 2.0 | 8.0 | 0.00 | 0.00 | 0.00 | 61 | 1013.1 |
| 20260507140006 | 83 | 226 | 2.0 | 6.0 | 0.00 | 0.00 | 0.00 | 62 | 1013.2 |
| 20260507135004 | 83 | 195 | 2.0 | 6.0 | 0.00 | 0.00 | 0.00 | 64 | 1013.1 |
| 20260507134005 | 82 | 175 | 1.0 | 5.0 | 0.00 | 0.00 | 0.00 | 69 | 1013.1 |
| 20260507133005 | 81 | 174 | 2.0 | 7.0 | 0.00 | 0.00 | 0.00 | 71 | 1013.3 |
| 20260507132217 | 80 | 186 | 1.0 | 6.0 | 0.00 | 0.00 | 0.00 | 72 | 1013.2 |
| 20260507131005 | 79 | 143 | 1.0 | 6.0 | 0.00 | 0.00 | 0.00 | 74 | 1013.2 |
| 20260507130214 | 78 | 144 | 1.0 | 3.0 | 0.00 | 0.00 | 0.00 | 76 | 1013.3 |
| 20260507125215 | 77 | 175 | 1.0 | 4.0 | 0.00 | 0.00 | 0.00 | 78 | 1013.3 |
| 20260507124004 | 76 | 157 | 1.0 | 7.0 | 0.00 | 0.00 | 0.00 | 81 | 1013.2 |
| 20260507123217 | 76 | 161 | 1.0 | 7.0 | 0.00 | 0.00 | 0.00 | 81 | 1013.1 |
| 20260507122005 | 75 | 151 | 1.0 | 7.0 | 0.00 | 0.00 | 0.00 | 82 | 1013.3 |
| 20260507121004 | 74 | 167 | 1.0 | 4.0 | 0.00 | 0.00 | 0.00 | 85 | 1013.2 |
| 20260507120005 | 73 | 129 | 1.0 | 3.0 | 0.00 | 0.00 | 0.00 | 86 | 1013.2 |
| 20260507115216 | 72 | 143 | 0.0 | 2.0 | 0.00 | 0.00 | 0.00 | 87 | 1013.0 |
| 20260507114217 | 71 | 156 | 1.0 | 4.0 | 0.00 | 0.00 | 0.00 | 88 | 1013.2 |
| 20260507113218 | 71 | 131 | 0.0 | 1.0 | 0.00 | 0.00 | 0.00 | 88 | 1013.2 |
| 20260507112005 | 71 | 151 | 1.0 | 3.0 | 0.00 | 0.00 | 0.00 | 89 | 1013.0 |
| 20260507111004 | 70 | 156 | 0.0 | 3.0 | 0.00 | 0.00 | 0.00 | 90 | 1013.1 |
| 20260507110005 | 70 | 161 | 0.0 | 1.0 | 0.00 | 0.00 | 0.00 | 91 | 1013.1 |
| 20260507105005 | 70 | 156 | 0.0 | 2.0 | 0.00 | 0.00 | 0.00 | 92 | 1013.3 |
| 20260507104004 | 70 | 120 | 0.0 | 2.0 | 0.00 | 0.00 | 0.00 | 93 | 1013.0 |
| 20260507103004 | 70 | 142 | 0.0 | 1.0 | 0.00 | 0.00 | 0.00 | 94 | 1012.8 |
| 20260507102006 | 70 | 152 | 0.0 | 3.0 | 0.00 | 0.00 | 0.00 | 94 | 1012.8 |
| 20260507101004 | 70 | 160 | 0.0 | 2.0 | 0.00 | 0.00 | 0.00 | 95 | 1012.8 |
| 20260507100005 | 70 | 146 | 0.0 | 3.0 | 0.00 | 0.00 | 0.00 | 95 | 1012.5 |
| 20260507095004 | 70 | 148 | 0.0 | 1.0 | 0.00 | 0.00 | 0.00 | 95 | 1012.5 |
| 20260507094005 | 70 | 155 | 0.0 | 0.0 | 0.00 | 0.00 | 0.00 | 95 | 1012.3 |
| 20260507093004 | 70 | 164 | 0.0 | 1.0 | 0.00 | 0.00 | 0.00 | 95 | 1012.6 |
| 20260507092004 | 70 | 161 | 0.0 | 1.0 | 0.00 | 0.00 | 0.00 | 94 | 1012.2 |
| 20260507091004 | 70 | 162 | 0.0 | 1.0 | 0.00 | 0.00 | 0.00 | 94 | 1012.2 |
| 20260507090006 | 70 | 145 | 0.0 | 1.0 | 0.00 | 0.00 | 0.00 | 93 | 1012.3 |
| 20260507085005 | 70 | 0 | 0.0 | 0.0 | 0.00 | 0.00 | 0.00 | 93 | 1012.0 |
| 20260507084004 | 70 | 151 | 0.0 | 2.0 | 0.00 | 0.00 | 0.00 | 93 | 1012.0 |
| 20260507083005 | 70 | 153 | 0.0 | 1.0 | 0.00 | 0.00 | 0.00 | 93 | 1011.7 |
| 20260507082004 | 70 | 147 | 0.0 | 1.0 | 0.00 | 0.00 | 0.00 | 93 | 1012.3 |
| 20260507081217 | 70 | 139 | 0.0 | 1.0 | 0.00 | 0.00 | 0.00 | 92 | 1012.4 |
| 20260507080005 | 70 | 0 | 0.0 | 0.0 | 0.00 | 0.00 | 0.00 | 92 | 1012.2 |
| 20260507075004 | 70 | 137 | 0.0 | 1.0 | 0.00 | 0.00 | 0.00 | 91 | 1012.5 |
| 20260507074004 | 71 | 0 | 0.0 | 0.0 | 0.00 | 0.00 | 0.00 | 90 | 1012.7 |
| 20260507073005 | 71 | 0 | 0.0 | 0.0 | 0.00 | 0.00 | 0.00 | 90 | 1012.5 |
| 20260507072216 | 71 | 0 | 0.0 | 0.0 | 0.00 | 0.00 | 0.00 | 89 | 1012.6 |